Hourly Data Report for September 22, 2017

All times are specified in Local Standard Time (LST). Add 1 hour to adjust for Daylight Saving Time where and when it is observed.

RESOLUTE BAY A
NUNAVUT

74°43'01.000" N
94°58'10.000" W
67.70 m
2403498
71924
YRB

Download Data

Hourly Data (September 2017)
Hourly Data Report for September 22, 2017
Temp Definition
°C
Dew Point Temp Definition
°C
Rel Hum Definition
%
Wind Dir Definition
10's deg

Wind Spd Definition
km/h
Visibility Definition
km
Stn Press Definition
kPa
Hmdx Definition


Wind Chill Definition


Weather Definition


TIME
00:00 Legend Double Dagger -2.8 -3.4 96 30 23 0.8 101.50   -9 Freezing Drizzle,Freezing Fog
01:00 Legend Double Dagger -3.0 -3.6 96 32 19 16.1 101.49   -9 Snow
02:00 Legend Double Dagger -3.3 -4.0 95 32 22 24.1 101.49   -10 Snow
03:00 Legend Double Dagger -3.6 -4.3 95 33 16 24.1 101.48   -9 Snow
04:00 Legend Double Dagger -4.0 -4.9 94 34 25 16.1 101.50   -11 Snow
05:00 Legend Double Dagger -5.9 -7.0 92 34 34 24.1 101.51   -15 Snow Showers
06:00 Legend Double Dagger -5.4 -6.4 93 34 31 24.1 101.50   -14 Snow Showers
07:00 Legend Double Dagger -5.2 -6.3 92 34 35 24.1 101.48   -14 LegendNANA
08:00 Legend Double Dagger -4.5 -6.1 89 33 31 24.1 101.47   -12 LegendNANA
09:00 Legend Double Dagger -3.7 -5.8 85 33 27 24.1 101.45   -11 Cloudy
10:00 Legend Double Dagger -3.7 -5.4 88 32 32 24.1 101.44   -12 LegendNANA
11:00 Legend Double Dagger -3.7 -5.4 88 33 20 24.1 101.45   -10 LegendNANA
12:00 Legend Double Dagger -3.4 -5.2 88 32 25 24.1 101.45   -10 Cloudy
13:00 Legend Double Dagger -3.2 -4.8 89 32 26 24.1 101.43   -10 LegendNANA
14:00 Legend Double Dagger -3.4 -4.5 92 33 31 24.1 101.42   -11 Snow
15:00 Legend Double Dagger -3.6 -4.9 91 34 37 19.3 101.41   -12 Freezing Drizzle
16:00 Legend Double Dagger -4.1 -6.4 84 33 33 24.1 101.41   -12 LegendNANA
17:00 Legend Double Dagger -5.2 -7.0 87 33 25 24.1 101.41   -13 LegendNANA
18:00 Legend Double Dagger -4.5 -6.0 90 33 28 24.1 101.40   -12 Cloudy
19:00 Legend Double Dagger -5.0 -6.3 91 33 28 24.1 101.37   -13 LegendNANA
20:00 Legend Double Dagger -5.4 -6.8 90 31 25 24.1 101.35   -13 LegendNANA
21:00 Legend Double Dagger -5.9 -7.2 91 33 28 24.1 101.32   -14 Mainly Clear
22:00 Legend Double Dagger -5.5 -6.6 92 32 21 24.1 101.29   -12 LegendNANA
23:00 Legend Double Dagger -4.2 -5.4 92 31 32 24.1 101.27   -12 LegendNANA

Notes on Data Quality.

Legend

  • E = Estimated
  • M = Missing
  • NA = Not Available
  • ‡ = Partner data that is not subject to review by the National Climate Archives
Date modified: